{"data":{"norad_id":68863,"intl_designator":"2026-094AA","name":"STARLINK-37430","alt_names":[],"object_type":"PAYLOAD","status":"ACTIVE","operator":null,"country":"US","launch_date":"2026-04-26","launch_site_code":"AFWTR","launch_vehicle":null,"mission":null,"orbit_class":"UNKNOWN","rcs_meters":null,"size_class":null,"mass_kg":null,"dimensions":null,"purposes":["comms"],"wikipedia_slug":null,"has_3d_model":false,"image_url":null,"decayed_at":null,"tle_current":{"epoch":"2026-05-25T04:00:03.998880Z","epoch_age_seconds":50874,"freshness":"FRESH","line1":"1 68863U 26094AA  26145.16671295 -.00016415  00000+0 -30096-3 0  9996","line2":"2 68863  97.2845 159.8881 0000710 101.7948  29.9855 15.49173488  5672","mean_motion":15.49173488,"eccentricity":7.1e-5,"inclination_deg":97.2845,"raan_deg":159.8881,"arg_perigee_deg":101.7948,"mean_anomaly_deg":29.9855,"bstar":-0.00030096,"rev_number":567,"period_min":92.952791353217,"perigee_km":418.66003552256,"apogee_km":419.62524923177,"semimajor_km":6797.2796423772,"source":"CELESTRAK","updated_at":"2026-05-25T13:38:22.065752Z"}}}